Location: Tr�vern
(48.0333°N, 4.6000°W)
Time: 16:24:44
(UTC+00:00)

USA 215 - Pass Details

Date: 14 July 2020
Orbit: 1102 x 1106 km, 123.0° (Epoch: 08 August)

Event Time Altitude Azimuth Distance (km) Brightness Sun altitude
Rises 01:36:13 0° 62° (ENE) 3,926 6.9 -18.5°
Reaches altitude 10° 01:38:48 10° 57° (ENE) 2,967 6.3 -18.4°
Maximum altitude 01:44:57 46° 347° (NNW) 1,456 4.3 -18.0°
Drops below altitude 10° 01:51:06 10° 277° (W) 2,962 5.4 -17.7°
Sets 01:53:41 0° 272° (W) 3,918 6.0 -17.5°
